NOAA 16 DEB

Satellite information

Favourite Embed

Satellite Type and Status

DEBRISIN ORBIT

Key statistics

Satellite NOAA 16 DEB at a glance.

Uptime

9056

Days in orbit

Revolutions

≈ 14.2

Per day

Orbit

SSO

Sun Synchronous Orbit

Inclination

98.7

Latest

Satellite identification and parameters

Extended collection of information and parameters for NOAA 16 DEB.

Object identification

Identified? True

Debris? True

Object name: NOAA 16 DEB

International designator: 2000-055TV

Object number (NORAD): 42425

Object ID (CCSDS): 42425

Country: UNITED STATES OF AMERICA (US)

Current information (Y/N): Y

RCS size: SMALL

Orbital parameters

Period: 101.62 minutes

Inclination: 98.7164 deg

SMA: 7213.489 km

Apoapsis: 855.523 km

Periapsis: 815.185 km

RAAN: 226.7954 deg

Eccentricy: 0.002796

Argument of periapsis: 119.1619 deg

Mean anomaly: 241.2359 deg

Mean motion: 14.17048421 rev/day

Mean motion (dot): 0.00001937 rev/day2

B* drag term: 0.00098077 1/REarth

Two-line elements (TLE)

Creation date: July 7, 2025, 6:34 p.m.

Reference frame: TEME

Reference center: EARTH

Epoch: July 7, 2025, 1:35 a.m. UTC

TLE line 0: 0 NOAA 16 DEB

TLE line 1: 1 42425U 00055TV 25188.06616261 .00001937 00000-0 98077-3 0 9993

TLE line 2: 2 42425 98.7164 226.7954 0027960 119.1619 241.2359 14.17048421457825

Live tracking on map

Real-time ground track for satellite NOAA 16 DEB.

In-orbit conjunctions

A list of the most updated potential collisions computed for object NOAA 16 DEB.

Target Orbit TCA Probability of collision Miss distance Type
THORAD AGENA D DEB SSO 2025-02-15 17:08:37 0.0001327471 43.0 (m) DEBRIS
METEOR 2-5 DEB LEO 2024-09-16 10:42:37 0.0001118527 44.0 (m) DEBRIS

Associated space launch

The NOAA K, L and M POES satellites begin the fifth generation of improved environmental monitoring in support of NOAA missions. The instrument payload has significant improvements and additions/deletions. The instrument changes have effected the spacecraft subsystems and data formats.

NOAA 16 DEB was lifted into orbit during the mission ‘Titan II SLV | NOAA 16’, on board a Titan II SLV space rocket.

The launch took place on Sept. 21, 2000, 10:22 a.m. from Space Launch Complex 4W.

For more information about the launch, click the button.

Launch to space Titan II SLV | NOAA 16
Titan II SLV | NOAA 16

Agency: N/A

Status: Launch Successful

Launch date: Sept. 21, 2000, 10:22 a.m. UTC

Rocket: Titan II SLV

Launch pad: Space Launch Complex 4W

Location: Vandenberg SFB, CA, USA

...

Latest news about this satellite

There are no fresh news available about this satellite. Check back as we update our databases every day.


Newsletter sign-up

Weekly statistics, charts and insights to help you stay on top of the space industry.